Home > Weather > Wodonga > Past weeks

Flag for Australia Past Weather in Wodonga, Victoria, Australia — Yesterday and Last 2 Weeks

Now
45 °F

Quite cool.


Feels Like: 42 °F
Forecast: 35 / 56 °F
Wind: 5 mph from Northwest

Location: Albury Aeroport Aws

Current Time: Aug 24, 2016 at 11:59:32 PM

Latest Report: Aug 24, 2016 at 11:00 PM


Visibility: N/A

Pressure: 29.86 "Hg

Humidity: 100%

Dew Point: 45 °F

Location of WodongaLocation

Past Weather in Wodonga — Graph

°F

Wodonga Temperature Yesterday

Maximum temperature yesterday: 59 °F (at 3:00 PM)
Minimum temperature yesterday: 42 °F (at 6:00 AM)
Average temperature yesterday: 49 °F

High & Low Weather Summary for the Past Weeks

 TemperatureHumidityPressure
High67 °F (Aug 18, 3:00 PM)100% (Aug 12, 5:00 AM)30.50 "Hg (Aug 12, 5:00 AM)
Low34 °F (Aug 12, 6:00 AM)51% (Aug 23, 2:00 PM)29.82 "Hg (Aug 19, 3:00 PM)
Average49 °F83%30.13 "Hg
* Reported Aug 9 9:00 PM — Aug 24 9:00 PM, Wodonga, Weather by CustomWeather, © 2016

Note: Actual official high and low records may vary slightly from our data, if they occured in-between our weather recording intervals... More about our weather records

Advertising

Wodonga Weather History for the Previous 24 Hours

Scroll right to see more
 ConditionsComfort  
Time TempWeatherWind HumidityBarometerVisibility
9:00 PM
Wed, Aug 24
46 °FOvercast.No wind100%29.86 "Hg6 mi
8:00 PM46 °FCool.5 mph97%29.86 "HgN/A
6:00 PM51 °FPassing clouds.5 mph84%29.84 "HgN/A
5:00 PM53 °FCool.No wind76%29.83 "HgN/A
3:00 PM53 °FOvercast.6 mph71%29.85 "HgN/A
2:00 PM52 °FCool.No wind76%29.86 "HgN/A
12:00 PM52 °FPartly sunny.5 mph75%29.91 "HgN/A
11:00 AM51 °FCool.1 mph74%29.94 "HgN/A
9:00 AM47 °FCool.3 mph79%29.97 "HgN/A
8:00 AM44 °FQuite cool.3 mph88%29.98 "HgN/A
6:00 AM40 °FOvercast.No wind100%29.97 "HgN/A
5:00 AM37 °FChilly.No wind99%29.96 "HgN/A
3:00 AM39 °FChilly.No wind97%29.97 "HgN/A
2:00 AM39 °FChilly.3 mph98%29.99 "HgN/A
12:00 AM43 °FQuite cool.1 mph98%30.01 "HgN/A
11:00 PM
Tue, Aug 23
43 °FQuite cool.No wind98%30.02 "HgN/A
Weather by CustomWeather, © 2016

See weather overviewHow to use our weather pages